Location: ????????
(55.6705°N, 38.7686°E)
Time: 15:32:55
(UTC+00:00)

Daily predictions for brighter satellites

Satellite Brightness Start Highest point End
(mag) Time Altitude Azimuth Time Altitude Azimuth Time Altitude Azimuth
SL-24 R/B - RUBIN 2 3.6 13:30:00 10° NW 13:34:45 86° NE 13:39:08 10° SE
Cosmos 1408 Rocket 3.5 13:30:45 10° N 13:35:09 83° ENE 13:39:33 10° SSE
MOS 1 Rocket 3.5 13:30:15 10° NNE 13:35:16 64° E 13:39:56 10° S
Cosmos-2242 3.9 13:31:37 10° SSW 13:35:45 48° WNW 13:39:54 10° N
H-2A R/B 3.2 13:35:56 10° S 13:39:34 63° W 13:43:13 10° NNW
Cosmos 1500 4.1 13:37:08 10° N 13:40:21 26° ENE 13:43:31 10° SE
Cosmos 1606 2.7 13:36:55 10° S 13:40:39 68° E 13:44:28 10° NNE
Cosmos 1461 3.7 13:37:13 10° W 13:41:06 39° NNW 13:44:54 10° NE
MINOTAUR 4 R/B 4.1 13:37:48 10° NNE 13:41:20 61° ESE 13:44:50 10° S
Cosmos 2026 Rocket 4.3 13:35:58 10° N 13:41:50 43° ENE 13:47:36 10° SE
Meteor 2-2 Rocket 4.4 13:39:38 10° S 13:45:38 76° E 13:51:35 10° NNE
Cosmos 1743 Rocket 3.5 13:41:41 10° N 13:46:00 62° ENE 13:50:17 10° SSE
USA 306 3.1 13:42:00 10° W 13:46:16 72° S 13:50:29 10° E
Meteor 1-31 Rocket 3.2 13:42:41 10° S 13:46:29 68° WSW 13:50:21 10° NNW
CZ-4B R/B 4.1 13:42:30 10° ESE 13:46:44 25° NE 13:50:57 10° N
Cosmos 2360 4.4 13:41:46 10° NW 13:47:32 82° WSW 13:53:17 10° SSE
Cosmos 1939 Rocket 3.3 13:47:49 10° SE 13:51:38 40° ENE 13:55:26 10° N
SJ 16-02 4.2 13:48:46 10° NW 13:52:04 21° W 13:55:22 10° SSW
NOSS 2-1 (E) 3.3 13:50:17 10° WSW 13:53:29 58° NNW 13:57:08 10° NE
Cosmos 2360 Rocket 3.3 13:49:02 10° NNW 13:53:42 25° NNE 13:58:20 10° E
Meteor 1-20 Rocket 4.3 13:49:56 10° NNW 13:55:48 77° ENE 14:01:40 10° SSE
NOSS 2-2 (C) 4.4 13:52:12 10° NW 13:56:54 74° SW 14:03:29 10° SE
Cosmos 1666 Rocket 4.4 13:53:07 10° N 13:57:04 29° ENE 14:00:56 10° SE
CZ-2D R/B 4.2 13:56:08 10° ESE 13:59:18 25° ENE 14:02:27 10° N
Cosmos 1782 3.9 13:57:32 10° SE 14:00:48 24° E 14:04:03 10° NNE
Cosmos 468 Rocket 4.3 13:56:42 10° S 14:01:42 51° ESE 14:06:47 10° NE
SMAP 3.2 13:59:06 10° SE 14:03:36 52° ENE 14:08:09 10° N
USA 267 4.3 14:00:22 10° ENE 14:06:01 30° SE 14:11:37 10° SSW
USA 307 3.1 14:02:03 10° W 14:06:17 71° S 14:10:32 10° E
Cosmos 1340 Rocket 3.5 14:02:23 10° NNW 14:06:26 62° W 14:10:28 10° S
Cosmos 1898 Rocket 4.1 14:01:23 10° NNW 14:06:36 62° WSW 14:11:44 10° S
Okean O Rocket 2.8 14:04:01 10° ESE 14:07:25 22° NE 14:10:50 10° N
Cosmos 1666 3.4 14:06:02 10° N 14:09:20 29° ENE 14:12:36 10° SE
CZ-4C R/B 3.1 14:08:41 10° NNE 14:12:35 81° ESE 14:16:15 10° SSW
COSMOS 2428 4.1 14:08:54 10° NNW 14:13:06 20° NNE 14:16:20 13° NE
Cosmos 1500 Rocket 3.9 14:08:57 10° NNW 14:13:24 73° W 14:17:47 10° S
Cosmos 1697 Rocket 3.6 14:09:15 10° NW 14:14:43 54° WSW 14:20:10 10° S
Cosmos 44 Rocket 3.2 14:09:52 10° NW 14:14:53 74° NE 14:19:43 10° SE
Sich 1 3.0 14:11:43 10° N 14:16:01 64° ENE 14:20:17 10° SSE
Cosmos 2322 Rocket 2.8 14:10:52 10° NNW 14:16:09 37° NE 14:21:26 10° ESE
ATLAS CENTAUR R/B 3.7 14:07:33 10° SSW 14:16:15 40° SSE 14:19:39 14° E
Lacrosse 5 rocket 1.5 14:13:04 10° WNW 14:16:52 67° SSW 14:20:53 10° ESE
NOAA 12 4.2 14:11:50 10° SSE 14:17:10 88° WSW 14:22:31 10° NNW
Cosmos 2221 2.8 14:13:00 10° SSW 14:17:16 69° WNW 14:21:38 10° N
Cosmos 1818 3.5 14:13:03 10° NW 14:18:36 78° NE 14:24:04 10° SE
Cosmos 1980 Rocket 2.3 14:14:49 10° NW 14:20:31 81° WSW 14:26:10 10° SSE
Cosmos 1464 Rocket 4.4 14:19:02 10° SSW 14:25:25 72° WNW 14:31:48 10° N
Cosmos 1805 Rocket 3.5 14:21:19 10° NNW 14:25:41 87° W 14:30:02 10° S
ATLAS CENTAUR R/B 2.7 14:23:02 10° W 14:27:04 33° NNW 14:30:24 15° NE
USA 308 3.1 14:24:37 10° W 14:28:52 69° S 14:32:36 13° ESE
Cosmos 2369 4.4 14:23:49 10° NW 14:29:29 61° WSW 14:35:06 10° SSE
Cosmos 1763 Rocket 3.4 14:24:45 10° SSW 14:29:51 83° ESE 14:34:53 11° NNE
COSMOS 2455 3.3 14:24:30 10° S 14:30:08 43° ESE 14:34:30 17° NE
SeaSat 1 3.0 14:26:14 10° NNE 14:31:04 54° NW 14:35:52 10° WSW
NOSS 3-4 (A) 4.1 14:25:38 10° WNW 14:31:44 46° N 14:36:59 17° ENE
NOSS 3-4 (C) 4.1 14:25:44 10° WNW 14:31:50 46° N 14:37:03 17° ENE
Meteor PRIRODA 4.4 14:28:34 10° S 14:32:08 56° WSW 14:35:43 10° NNW
deb Chang Zheng 4 4.1 14:28:35 10° SE 14:32:30 35° ENE 14:36:26 10° N
CORIOLIS 4.1 14:28:16 10° SSE 14:33:41 81° ENE 14:39:09 10° NNW
Cosmos 371 Rocket 4.5 14:30:37 10° NNW 14:34:27 23° NE 14:36:00 20° ENE
ATLAS 2AS CENTAUR R/B 3.4 14:27:06 10° WNW 14:34:29 46° N 14:39:48 18° ENE
H-2A R/B 4.0 14:35:33 16° NE 14:35:33 16° NE 14:37:24 10° NNE
NOSS 2-1 (C) 4.0 14:31:47 10° W 14:34:51 35° NNW 14:37:05 18° NE
Meteor 2-16 Rocket 4.4 14:29:31 10° N 14:35:37 61° ENE 14:41:40 10° SSE
SL-16 R/B 2.3 14:30:37 10° NNW 14:36:11 53° NE 14:41:45 10° SE
Cosmos 1842 Rocket 4.3 14:32:05 10° SSW 14:36:28 54° WNW 14:40:55 10° N
PSLV R/B 3.6 14:33:48 10° SSE 14:37:27 60° ENE 14:41:13 10° N
Cosmos 2237 Rocket 3.8 14:33:42 10° NNW 14:37:30 18° N 14:39:52 14° NE
Meteor 1-5 Rocket 4.3 14:32:34 10° N 14:38:34 65° ENE 14:44:26 10° SSE
Cosmos 841 Rocket 3.7 14:34:08 10° S 14:39:07 51° ESE 14:43:01 16° NE
Cosmos 2150 Rocket 4.1 14:35:07 10° NNW 14:40:12 52° NE 14:45:18 10° SE
SL-16 R/B 4.4 14:36:04 10° N 14:40:53 24° NW 14:45:42 10° W
Cosmos 1092 Rocket 4.3 14:34:41 10° NNW 14:41:04 75° W 14:47:22 10° S
USA 234 3.8 14:36:42 10° SE 14:43:10 61° SSW 14:49:39 10° WNW
Cosmos 2082 Rocket 2.5 14:38:02 10° S 14:43:25 47° ESE 14:47:13 19° NE
Cosmos 1812 3.2 14:40:08 10° SSE 14:43:43 37° E 14:45:44 21° NE
SL-08 R/B 3.4 14:39:15 10° NNE 14:43:59 75° WNW 14:48:37 10° SSW
NOSS 2-1 (D) 4.2 14:41:13 10° W 14:44:16 33° NNW 14:46:12 20° NNE
ISS -0.7 14:42:40 10° WSW 14:44:39 15° SSW 14:46:38 10° S
CZ-4 R/B 2.9 14:47:09 18° NNE 14:47:09 18° NNE 14:48:55 10° N
GEOS 3 Rocket 3.8 14:44:02 17° E 14:47:52 51° NNE 14:52:52 10° NW
ARGOS 3.3 14:44:10 10° SE 14:49:20 49° ENE 14:54:32 10° N
Cosmos 1125 Rocket 3.5 14:44:35 10° NNW 14:49:47 57° NE 14:54:58 10° SE
Cosmos 1933 3.4 14:46:59 10° SSW 14:51:01 81° W 14:55:05 10° N
Cosmos 1544 3.7 14:47:56 10° N 14:51:14 32° ENE 14:52:00 29° E
H-2A R/B 1.9 14:46:24 10° SSE 14:51:28 71° ENE 14:56:26 10° NNW
CZ-2C R/B 4.2 14:47:32 10° S 14:52:06 43° W 14:56:40 10° NNW
Cosmos 2278 4.1 14:46:44 10° NW 14:52:26 68° WSW 14:58:04 10° SSE
Cosmos 1356 Rocket 4.0 14:48:49 10° N 14:52:40 34° ENE 14:56:33 10° SE
Cosmos 2333 Rocket 3.1 14:48:11 10° NNW 14:53:18 31° NNE 14:55:28 24° ENE
USA 305 3.3 14:49:33 10° W 14:53:45 60° SSW 14:56:40 19° ESE
Meteor 1-14 Rocket 4.3 14:48:58 10° NNW 14:54:50 86° ENE 15:00:47 10° SSE
Cosmos 921 Rocket 4.2 14:53:55 10° SSE 14:56:44 22° ESE 14:56:44 22° ESE
SL-16 R/B 4.0 14:55:01 10° NW 14:58:44 17° N 15:01:05 14° NNE
Cosmos 1833 Rocket 2.7 14:53:23 10° SW 14:59:02 82° NW 15:03:26 17° NNE
CZ-4B DEB 4.3 14:53:34 10° SSE 14:59:05 78° WSW 15:04:36 10° NNW
MOS 1-B Rocket 4.2 14:56:27 10° NNE 15:02:10 49° E 15:08:37 10° S
CZ-4C R/B 3.6 14:56:03 10° NW 15:02:51 57° SW 15:10:53 10° SSE
COSMO-SKYMED 1 3.2 15:03:43 32° E 15:04:06 32° E 15:08:01 10° SSE
CZ-2C R/B 3.0 15:02:39 23° NE 15:05:18 38° E 15:10:06 10° SSE
Cosmos 2219 Rocket 3.1 15:00:59 10° NNW 15:05:58 30° NNE 15:07:17 27° ENE
ERBS 2.2 15:03:14 10° W 15:06:27 67° N 15:06:57 54° NE
Cosmos 1633 Rocket 3.0 15:02:14 10° NNW 15:06:39 90° SW 15:11:03 10° S
CZ-4 R/B 4.4 15:05:04 10° SSE 15:09:06 55° ENE 15:13:11 10° N
Cosmos 2142 Rocket 4.4 15:03:42 10° S 15:09:49 68° E 15:16:03 10° NNE
Cosmos 2266 Rocket 4.0 15:03:41 10° N 15:10:01 59° ENE 15:16:21 10° SSE
ATLAS 5 CENTAUR R/B 2.6 15:00:56 10° WNW 15:10:18 76° SW 15:12:28 22° SE
Cosmos 2279 Rocket 3.9 15:05:04 10° S 15:11:13 67° E 15:17:22 10° NNE
MOS 1-B 4.4 15:05:54 10° SSE 15:11:42 83° WSW 15:17:32 10° NNW
COSMOS 2406 3.2 15:07:18 10° SW 15:13:04 83° NW 15:17:01 21° NNE
Cosmos 1151 Rocket 2.9 15:10:01 10° S 15:14:20 69° E 15:17:08 22° NNE
Cosmos 540 Rocket 3.5 15:10:11 10° SSW 15:15:18 76° WNW 15:18:57 20° NNE
YAOGAN 1 3.0 15:16:59 40° ENE 15:16:59 40° ENE 15:20:54 10° N
SL-08 RB Rocket 3.8 15:13:05 10° SE 15:17:35 53° ENE 15:22:03 10° N
Cosmos 1461 4.4 15:17:50 10° WNW 15:21:03 22° N 15:21:42 21° N
USA 306 3.6 15:21:48 10° W 15:25:55 49° SSW 15:27:39 30° SE
CZ-4B R/B 3.2 15:21:25 10° SSE 15:26:49 82° WSW 15:32:10 10° NNW
Meteor 1-27 Rocket 4.5 15:22:59 10° SSE 15:26:38 30° ESE 15:26:38 30° ESE
Cosmos 1634 Rocket 4.3 15:25:58 10° SSW 15:32:16 67° WNW 15:38:36 10° N
Cosmos 1933 Rocket 3.4 15:28:25 10° N 15:32:47 67° ENE 15:37:06 10° SSE
CZ-2D R/B 4.4 15:29:47 10° S 15:33:27 43° W 15:37:07 10° NNW
Meteor 2-6 Rocket 4.1 15:28:07 10° S 15:33:47 71° E 15:37:45 20° NNE
Cosmos 1782 3.9 15:33:04 10° SW 15:36:53 43° WNW 15:40:03 14° N
Cosmos 2237 4.1 15:32:31 10° NW 15:38:17 82° NE 15:41:59 23° SE
Cosmos 1470 Rocket 3.7 15:34:14 10° NNW 15:38:42 75° W 15:43:10 10° S
Cosmos 2360 Rocket 2.1 15:33:03 10° NNW 15:38:45 67° NE 15:40:52 38° ESE
Aureole 3 Rocket 4.2 15:35:47 10° SSE 15:44:58 18° NNE 15:46:50 10° NNE
Cosmos 1328 Rocket 3.5 15:36:33 10° S 15:41:01 88° E 15:42:40 39° NNE
Cosmos 1814 Rocket 3.9 15:36:46 10° SSW 15:41:59 89° WNW 15:44:05 37° NNE
Meteor 2-8 Rocket 4.3 15:36:44 10° S 15:42:53 81° E 15:49:06 10° NNE
Okean O Rocket 1.8 15:38:54 10° S 15:43:21 72° WSW 15:47:51 10° NNW
Cosmos 1666 4.5 15:41:32 10° NNW 15:44:52 32° W 15:48:12 10° SSW
Cosmos 1570 Rocket 3.9 15:40:31 10° SSW 15:45:46 87° ESE 15:47:36 42° NNE
USA 307 3.7 15:41:53 10° W 15:45:56 44° SSW 15:46:54 37° SSE
Cosmos 1536 4.3 15:42:16 10° N 15:44:10 26° N 15:44:10 26° N
USA 267 3.3 15:47:35 43° E 15:49:50 68° SSE 15:56:21 10° SW
SKYMED 2 3.4 15:52:20 82° E 15:52:23 82° ESE 15:56:45 10° SSW
Lacrosse 5 rocket 3.6 15:52:30 10° W 15:55:30 21° SW 15:58:14 12° S
COSMOS 2428 3.2 15:53:25 10° NNW 15:58:22 42° NNE 15:58:22 42° NNE
Cosmos 2322 Rocket 2.5 15:54:57 10° NW 16:00:37 67° WSW 16:05:10 16° SSE
Cosmos 1655 Rocket 4.3 15:54:47 10° NNW 16:01:09 69° W 16:07:29 10° S
Meteor 1-11 Rocket 3.9 15:57:14 10° NNW 16:02:49 70° W 16:08:31 10° S
Meteor 1-10 Rocket 4.1 16:01:06 10° SSW 16:06:51 90° ESE 16:09:15 37° NNE
ATLAS CENTAUR R/B 3.1 16:03:06 10° NW 16:06:31 27° N 16:06:31 27° N
SeaSat 1 4.4 16:05:50 16° N 16:07:48 20° NNW 16:11:22 10° WNW
USA 308 4.0 16:04:30 10° W 16:08:26 36° SSW 16:08:38 36° SSW
H-2A R/B 4.2 16:12:05 23° NNW 16:12:05 23° NNW 16:13:43 10° NNW
Nadezhda 2 Rocket 4.4 16:04:26 10° N 16:10:52 66° ENE 16:11:39 61° ESE
Cosmos 2322 3.9 16:08:26 10° NNW 16:13:22 55° NNE 16:13:22 55° NNE
Cosmos 371 Rocket 3.6 16:10:42 10° NNW 16:14:41 60° NNW 16:14:41 60° NNW
COSMOS 2455 3.2 16:10:01 10° WSW 16:15:59 60° NW 16:17:39 45° NNE
SL-16 R/B 3.4 16:14:57 10° NW 16:20:14 41° WSW 16:25:29 10° S
CZ-4 R/B 3.4 16:23:08 21° NNW 16:23:08 21° NNW 16:24:31 10° NNW
Cosmos 2237 Rocket 3.5 16:18:20 10° NNW 16:21:41 27° N 16:21:41 27° N
NOSS 3-4 (A) 3.6 16:16:47 10° NW 16:23:26 80° NE 16:24:26 67° E
NOSS 3-4 (C) 3.6 16:16:53 10° NW 16:23:32 79° NE 16:24:31 67° E
Cosmos 2208 Rocket 4.4 16:18:25 10° SW 16:23:49 65° WNW 16:24:46 55° N
GEOS 3 Rocket 3.9 16:25:09 55° S 16:25:53 62° SW 16:31:03 10° NW
ATLAS 2AS CENTAUR R/B 2.9 16:19:15 10° WNW 16:26:43 57° NNE 16:27:13 56° NE
Cosmos 2082 Rocket 3.0 16:22:04 10° WSW 16:27:34 48° NW 16:29:05 39° N
H-2A R/B 4.3 16:27:25 10° SW 16:31:24 23° W 16:35:21 10° NW
CSL-04 Rocket 4.5 16:35:51 40° NNW 16:35:51 40° NNW 16:39:11 10° NNW
Cosmos 921 Rocket 4.5 16:31:04 10° SW 16:33:34 33° WSW 16:33:34 33° WSW
IRS-1C Rocket 4.3 16:36:34 67° WNW 16:36:34 67° WNW 16:41:20 10° NNW
Cosmos 2333 Rocket 2.4 16:32:29 10° NW 16:37:30 68° NNW 16:37:30 68° NNW
COSMO-SKYMED 1 3.9 16:40:56 38° W 16:40:56 38° W 16:44:26 10° SW
Cosmos 1833 Rocket 4.2 16:38:58 10° W 16:43:48 28° NNW 16:45:08 25° N
SL-16 R/B 4.0 16:40:17 10° NNW 16:42:57 20° N 16:42:57 20° N
CZ-2C R/B 3.5 16:44:09 35° NNW 16:45:44 45° WNW 16:50:37 10° SW
ATLAS CENTAUR R/B 3.6 16:41:27 10° W 16:45:17 34° W 16:45:17 34° W
Cosmos 2219 Rocket 2.9 16:44:55 10° NW 16:49:01 49° NNW 16:49:01 49° NNW
YAOGAN 1 4.4 16:54:08 28° WNW 16:54:08 28° WNW 16:56:57 10° NNW
Cosmos 2360 Rocket 3.7 17:17:29 10° NW 17:22:24 31° WSW 17:22:42 31° WSW
USA 267 3.9 17:34:56 51° W 17:34:56 51° W 17:39:37 10° W
ATLAS 2AS CENTAUR R/B 4.1 18:10:39 10° NW 18:14:40 34° WNW 18:14:40 34° WNW
